Weather reports worldwide

Advertisment
El Dorado, ar, United States of America (2074428): temperature & dewpoint: 15.07.2019 19:00:00 - 21.07.2019 19:00:00 (CDT)El Dorado, ar, United States of America (2074428): wind speed: 15.07.2019 19:00:00 - 21.07.2019 19:00:00 (CDT)El Dorado, ar, United States of America (2074428): wind direction: 15.07.2019 19:00:00 - 21.07.2019 19:00:00 (CDT)El Dorado, ar, United States of America (2074428): reduced air pressure: 15.07.2019 19:00:00 - 21.07.2019 19:00:00 (CDT)El Dorado, ar, United States of America (2074428): visibility: 15.07.2019 19:00:00 - 21.07.2019 19:00:00 (CDT)El Dorado, ar, United States of America (2074428): precipitation: 15.07.2019 19:00:00 - 21.07.2019 19:00:00 (CDT)
Date & Time tt [°C] td [°C] ff [km/h] ff [kn] dd ppp [hPa] vv [km] rr [mm]
21.07.2019 19:00:00 27,2 23,9 9 5 SSE 1013,6 16 -
21.07.2019 18:00:00 29,4 24,4 16 9 S 1013,4 16 -
21.07.2019 17:00:00 34,4 24,4 - - - 1013,2 16 -
21.07.2019 16:00:00 33,3 24,4 5 3 SW 1013,0 16 -
21.07.2019 15:00:00 33,9 25,6 5 3 - 1013,6 16 -
21.07.2019 14:00:00 33,3 25,0 8 4 W 1014,3 16 -
21.07.2019 13:00:00 33,3 25,0 8 4 - 1015,1 16 -
21.07.2019 12:00:00 32,2 25,6 11 6 WNW 1015,3 16 -
21.07.2019 11:00:00 31,1 25,6 5 3 - 1015,6 16 -
21.07.2019 10:00:00 30,0 25,6 9 5 WSW 1015,5 16 -
21.07.2019 09:00:00 27,8 25,6 11 6 W 1015,9 16 -
21.07.2019 08:00:00 25,6 25,0 11 6 SSW 1015,8 16 -
21.07.2019 07:00:00 23,9 23,9 5 3 S 1015,7 16 -
21.07.2019 06:00:00 23,9 23,9 8 4 S 1014,9 16 -
21.07.2019 05:00:00 24,4 24,4 8 4 S 1014,8 16 -
21.07.2019 04:00:00 24,4 24,4 8 4 SSE 1014,7 16 -
21.07.2019 03:00:00 25,0 24,4 8 4 S 1014,3 16 -
21.07.2019 02:00:00 25,0 25,0 5 3 SSE 1014,0 16 -
21.07.2019 01:00:00 26,1 25,0 9 5 S 1013,4 16 -
21.07.2019 00:00:00 25,6 25,0 0 0 N 1013,6 16 -
20.07.2019 23:00:00 26,1 25,6 0 0 N 1013,4 16 -
20.07.2019 22:00:00 26,7 26,1 0 0 N 1013,4 16 -
20.07.2019 21:00:00 27,8 25,6 0 0 N 1013,2 16 -
20.07.2019 20:00:00 30,6 24,4 5 3 SE 1013,5 16 -
20.07.2019 19:00:00 32,2 23,9 8 4 SSE 1013,4 16 -
20.07.2019 18:00:00 32,8 22,8 9 5 - 1013,8 16 -
20.07.2019 17:00:00 33,3 22,8 5 3 - 1014,0 16 -
20.07.2019 16:00:00 32,8 23,9 8 4 - 1014,4 16 -
20.07.2019 15:00:00 32,8 23,3 11 6 S 1014,6 16 -
20.07.2019 14:00:00 31,7 22,8 18 10 WSW 1014,9 16 -
20.07.2019 13:00:00 32,2 23,9 16 9 S 1015,9 16 -
20.07.2019 12:00:00 31,1 24,4 15 8 S 1016,2 16 -
20.07.2019 11:00:00 30,6 25,0 13 7 SSW 1016,5 16 -
20.07.2019 10:00:00 28,9 25,0 11 6 - 1016,8 16 -
20.07.2019 09:00:00 27,8 25,6 15 8 SSW 1017,2 16 -
20.07.2019 08:00:00 26,1 25,6 9 5 S 1016,9 16 -
20.07.2019 07:00:00 24,4 24,4 5 3 SSE 1016,6 15 -
20.07.2019 06:00:00 24,4 24,4 8 4 S 1015,7 16 -
20.07.2019 05:00:00 25,0 24,4 8 4 S 1015,3 16 -
20.07.2019 04:00:00 25,0 24,4 9 5 SSW 1014,5 16 -
20.07.2019 03:00:00 25,6 24,4 11 6 S 1014,5 16 -
20.07.2019 02:00:00 25,6 25,0 11 6 S 1014,5 16 -
20.07.2019 01:00:00 26,1 25,0 9 5 SSE 1014,6 16 -
20.07.2019 00:00:00 25,6 25,0 5 3 SE 1014,9 16 -
19.07.2019 23:00:00 25,6 25,0 0 0 N 1015,1 16 -
19.07.2019 22:00:00 26,1 25,6 0 0 N 1015,0 16 -
19.07.2019 21:00:00 27,2 26,1 0 0 N 1014,8 16 -
19.07.2019 20:00:00 30,6 25,0 5 3 SE 1014,5 16 -
19.07.2019 19:00:00 31,7 23,3 8 4 S 1014,6 16 -
19.07.2019 18:00:00 32,8 23,3 11 6 SSW 1014,7 16 -
19.07.2019 17:00:00 33,3 22,2 13 7 S 1015,1 16 -
19.07.2019 16:00:00 33,3 23,3 13 7 S 1015,5 16 -
19.07.2019 15:00:00 33,3 23,3 13 7 S 1016,0 16 -
19.07.2019 14:00:00 32,2 23,3 13 7 S 1016,8 16 -
19.07.2019 13:00:00 32,2 23,9 16 9 SSW 1017,2 16 -
19.07.2019 12:00:00 31,7 23,9 13 7 SSW 1017,5 16 -
19.07.2019 11:00:00 30,6 23,9 13 7 SSW 1017,5 16 -
19.07.2019 10:00:00 29,4 24,4 16 9 SSW 1017,4 16 -
19.07.2019 09:00:00 27,8 25,0 15 8 SSW 1017,2 16 -
19.07.2019 08:00:00 26,1 25,0 11 6 S 1016,7 16 -
19.07.2019 07:00:00 23,9 23,9 5 3 S 1016,2 13 -
19.07.2019 06:00:00 23,9 23,9 0 0 N 1015,6 16 -
19.07.2019 05:00:00 24,4 24,4 5 3 S 1015,2 16 -
19.07.2019 04:00:00 24,4 24,4 8 4 S 1015,0 16 -
19.07.2019 03:00:00 25,0 24,4 5 3 SSW 1015,1 16 -
19.07.2019 02:00:00 25,6 24,4 11 6 S 1015,0 16 -
19.07.2019 01:00:00 26,1 24,4 5 3 ESE 1015,3 16 -
19.07.2019 00:00:00 26,1 25,0 5 3 S 1015,4 16 -
18.07.2019 23:00:00 26,7 25,0 8 4 SSE 1015,1 16 -
18.07.2019 22:00:00 27,2 25,6 5 3 SE 1014,7 16 -
18.07.2019 21:00:00 28,3 25,6 0 0 N 1014,4 16 -
18.07.2019 20:00:00 30,6 25,0 9 5 SSE 1014,3 16 -
18.07.2019 19:00:00 32,2 24,4 9 5 S 1014,3 16 -
18.07.2019 18:00:00 32,8 23,9 11 6 SSW 1014,7 16 -
18.07.2019 17:00:00 32,8 23,9 11 6 SW 1015,1 16 -
18.07.2019 16:00:00 33,3 23,9 16 9 SSW 1015,5 16 -
18.07.2019 15:00:00 33,3 23,9 18 10 SSW 1015,9 16 -
18.07.2019 14:00:00 32,2 24,4 8 4 SW 1016,5 16 -
18.07.2019 13:00:00 32,2 24,4 22 12 SSW 1016,9 16 -
18.07.2019 12:00:00 31,7 24,4 16 9 SW 1016,9 16 -
18.07.2019 11:00:00 30,0 24,4 21 11 SSW 1017,2 16 -
18.07.2019 10:00:00 29,4 25,0 16 9 SW 1017,7 16 -
18.07.2019 09:00:00 26,7 25,6 13 7 SSW 1017,8 16 -
18.07.2019 08:00:00 26,1 25,6 11 6 S 1017,5 16 -
18.07.2019 07:00:00 25,0 25,0 8 4 S 1017,3 11 -
18.07.2019 06:00:00 24,4 24,4 9 5 SSW 1016,9 15 -
18.07.2019 05:00:00 25,0 25,0 8 4 SSW 1016,5 16 -
18.07.2019 04:00:00 25,0 25,0 8 4 S 1016,3 16 -
18.07.2019 03:00:00 25,6 25,0 8 4 S 1016,6 16 -
18.07.2019 02:00:00 26,1 25,0 8 4 SSE 1016,9 16 -
18.07.2019 01:00:00 26,1 25,0 8 4 SSE 1016,8 16 -
18.07.2019 00:00:00 26,1 25,6 5 3 SSE 1016,8 16 -
17.07.2019 23:00:00 26,1 25,6 0 0 N 1016,3 16 -
17.07.2019 22:00:00 26,7 26,1 0 0 N 1015,9 16 -
17.07.2019 21:00:00 27,2 26,1 0 0 N 1015,3 16 -
17.07.2019 20:00:00 30,0 25,0 8 4 S 1015,2 16 -
17.07.2019 19:00:00 32,2 24,4 11 6 S 1015,4 16 -
17.07.2019 18:00:00 32,8 23,9 15 8 S 1015,6 16 -
17.07.2019 17:00:00 33,3 24,4 13 7 S 1016,5 16 -
17.07.2019 16:00:00 32,8 24,4 13 7 SSW 1017,1 16 -
17.07.2019 15:00:00 32,2 24,4 13 7 S 1017,8 16 -
17.07.2019 14:00:00 32,2 25,0 11 6 - 1018,2 16 -
17.07.2019 13:00:00 32,2 24,4 18 10 SSW 1018,5 16 -
17.07.2019 12:00:00 31,1 25,0 21 11 SSW 1018,7 16 -
17.07.2019 11:00:00 30,0 23,9 18 10 SW 1018,4 16 -
17.07.2019 10:00:00 28,9 23,9 16 9 SW 1018,1 16 -
17.07.2019 09:00:00 27,8 23,9 18 10 SW 1018,3 16 -
17.07.2019 08:00:00 26,1 24,4 15 8 SSW 1018,1 16 -
17.07.2019 07:00:00 25,0 24,4 9 5 SSW 1017,7 16 -
17.07.2019 06:00:00 24,4 23,9 8 4 S 1017,2 15 -
17.07.2019 05:00:00 24,4 23,9 8 4 S 1016,7 16 -
17.07.2019 04:00:00 25,0 24,4 9 5 S 1016,1 16 -
17.07.2019 03:00:00 25,6 24,4 8 4 S 1016,1 16 -
17.07.2019 02:00:00 26,1 24,4 13 7 S 1016,3 16 -
17.07.2019 01:00:00 26,7 25,0 13 7 S 1016,2 16 -
17.07.2019 00:00:00 26,7 25,0 8 4 S 1016,0 16 -
16.07.2019 23:00:00 26,7 25,6 5 3 SSE 1015,5 16 -
16.07.2019 22:00:00 26,7 26,1 0 0 N 1015,1 16 -
16.07.2019 21:00:00 27,2 26,7 0 0 N 1014,5 16 -
16.07.2019 20:00:00 28,9 27,2 0 0 N 1014,4 16 -
16.07.2019 19:00:00 30,6 26,7 5 3 S 1014,0 16 -
16.07.2019 18:00:00 31,7 25,6 5 3 S 1014,0 16 -
16.07.2019 17:00:00 32,8 25,0 13 7 SW 1014,2 16 -
16.07.2019 16:00:00 32,2 25,6 13 7 SW 1014,5 16 -
16.07.2019 15:00:00 31,7 24,4 16 9 SW 1015,1 16 -
16.07.2019 14:00:00 30,0 25,6 8 4 SW 1016,1 16 -
16.07.2019 13:00:00 28,9 25,6 8 4 - 1016,2 16 -
16.07.2019 12:00:00 26,7 25,6 13 7 S 1016,4 16 0,3
16.07.2019 11:00:00 25,0 24,4 13 7 ESE 1016,7 8 2,3
16.07.2019 10:00:00 25,0 24,4 9 5 N 1016,9 16 1,5
16.07.2019 09:00:00 24,4 24,4 11 6 SSE 1016,0 4,8 14,5
16.07.2019 08:00:00 23,9 23,3 8 4 WSW 1016,3 1,2 8,6
16.07.2019 07:00:00 24,4 23,9 8 4 - 1014,7 1,2 6,6
16.07.2019 06:00:00 25,0 24,4 11 6 S 1014,0 16 0,0
16.07.2019 05:00:00 25,6 23,9 16 9 S 1013,5 16 -
16.07.2019 04:00:00 25,6 23,9 18 10 S 1013,7 16 -
16.07.2019 03:00:00 25,0 23,9 16 9 S 1013,2 16 -
16.07.2019 02:00:00 24,4 23,3 13 7 S 1013,4 16 -
16.07.2019 01:00:00 23,9 23,3 13 7 SSE 1013,8 16 -
16.07.2019 00:00:00 24,4 23,3 13 7 SSE 1014,0 16 -
15.07.2019 23:00:00 25,0 23,9 9 5 SSE 1013,7 16 -
15.07.2019 22:00:00 25,0 23,9 11 6 S 1012,9 16 -
15.07.2019 21:00:00 25,6 23,9 8 4 SSE 1012,5 16 -
15.07.2019 20:00:00 27,8 23,9 5 3 S 1012,2 16 -
15.07.2019 19:00:00 28,3 22,8 11 6 SW 1012,0 16 -

tt = temperature
td = dewpoint
ff = wind speed
dd = wind direction
ppp = reduced air pressure
vv = visibility
rr = precipitation

Next stations